Location: Aix-en-Ergny
(50.5839°N, 1.9996°E)
Time: 23:26:19
(UTC+00:00)

Cosmos 1606 Rocket - Pass Details

Date: 23 October 2019
Orbit: 602 x 633 km, 82.5° (Epoch: 14 November)

Event Time Altitude Azimuth Distance (km) Brightness Sun altitude
Rises 03:28:18 0° 353° (N) 2,869 7.1 -28.8°
Reaches altitude 10° 03:30:36 10° 360° (N) 1,961 6.3 -28.4°
Maximum altitude 03:34:48 48° 75° (ENE) 793 4.4 -27.8°
Drops below altitude 10° 03:38:59 10° 151° (SSE) 1,951 6.2 -27.2°
Sets 03:41:15 0° 157° (SSE) 2,853 7.1 -26.8°
